Location: Limoges
(45.8354°N, 1.2645°E)
Time: 18:49:00
(UTC+01:00)

ISS - Pass Details

Date: 12 November 2025
Orbit: 416 x 421 km, 51.6° (Epoch: 05 December)

Event Time Altitude Azimuth Distance (km) Brightness Sun altitude
Rises 18:50:02 0° 198° (SSW) 2,354 0.5 -14.6°
Reaches altitude 10° 18:52:37 10° 178° (S) 1,494 -0.9 -15.0°
Enters shadow 18:54:46 17° 138° (SE) 1,143 -1.9 -15.4°
